Wind_Speed
18 18 17 17 16 16 16 16 16 17 18 18 19 19 18 18 18 17 17 16 16 17 17 17 17 17 18 18 19 20 21 22 23 24 25 24 23 22 22 23 23 22
18 18 17 16 15 14 14 14 15 17 19 20 20 20 19 18 18 17 17 16 16 17 17 17 17 17 17 18 18 19 20 21 22 23 23 23 23 22 22 22 23 22
18 18 17 15 14 13 12 12 14 16 18 19 19 19 18 17 17 17 16 16 16 16 16 16 16 16 16 17 17 17 18 20 21 21 21 21 22 23 23 23 23 22
18 17 16 15 13 12 12 12 13 14 15 16 17 17 17 17 16 16 16 16 16 16 16 15 15 15 15 15 16 16 17 18 19 20 20 20 21 22 23 23 23 22
17 17 16 14 13 12 12 11 11 12 13 15 16 16 16 16 16 15 15 15 15 15 15 15 14 15 15 15 16 16 17 18 19 20 21 21 21 21 22 22 23 22
18 17 16 14 13 12 11 10 10 11 13 15 15 16 16 16 15 15 15 14 14 15 15 15 15 15 15 15 16 17 18 18 19 20 21 22 22 22 21 22 22 22
19 18 16 14 14 13 11 11 10 11 13 14 15 16 16 15 15 15 14 14 14 15 15 15 15 15 15 16 17 17 18 18 19 20 21 22 23 23 23 22 22 23
20 18 16 14 14 13 12 11 11 11 12 14 15 16 16 15 15 15 14 15 15 15 15 16 15 16 16 16 17 18 18 19 20 21 21 22 23 23 24 24 24 25
20 19 16 14 14 14 13 12 11 12 13 14 16 16 16 15 15 15 15 15 15 16 16 16 16 16 17 17 18 19 19 19 20 21 21 21 23 24 25 25 25 26
21 20 16 14 14 14 14 13 12 13 14 15 16 16 16 16 15 15 15 15 16 17 17 17 17 17 18 18 19 19 20 20 20 20 21 22 23 24 25 25 26 26
23 21 17 15 15 15 15 14 14 14 14 15 16 17 16 16 16 16 16 17 17 17 18 18 18 18 19 19 20 20 20 20 21 21 21 22 23 24 25 24 24 24
24 22 19 16 16 15 15 15 15 15 16 16 17 17 17 16 16 16 17 17 18 18 18 18 18 19 19 20 20 20 20 20 21 22 22 23 24 24 23 22 21 21
25 23 19 17 17 16 16 16 16 16 16 17 17 17 17 17 17 17 18 18 18 18 18 19 19 19 20 20 20 20 21 21 22 22 22 23 23 22 21 20 19 18
25 22 19 18 17 18 18 18 18 17 17 17 17 18 18 18 17 18 18 18 18 18 18 19 19 20 20 21 21 21 22 22 23 23 23 23 22 21 19 18 17 17
24 22 20 19 19 20 20 20 19 18 18 18 18 18 18 18 18 18 18 18 18 19 19 19 20 21 21 22 22 23 23 23 24 24 25 25 23 21 19 17 17 16
24 23 22 21 22 22 22 21 20 19 18 18 18 18 18 18 18 18 19 19 19 19 19 20 20 21 22 22 23 23 24 25 25 26 26 25 24 23 20 18 17 16
25 25 24 24 24 23 22 21 20 19 18 18 19 19 19 19 19 19 19 19 19 20 20 20 21 21 22 22 23 24 25 26 27 26 26 24 23 23 21 20 18 17
27 27 26 25 24 24 23 22 20 20 19 20 20 20 20 20 20 20 20 20 20 20 20 21 22 22 22 23 24 25 26 26 26 26 25 23 22 21 21 20 20 18
28 28 26 25 24 24 23 22 22 21 21 21 21 21 21 21 20 20 20 21 21 21 21 22 22 22 23 24 25 26 26 26 25 24 23 22 21 20 20 20 20 19
28 27 26 25 24 23 23 23 23 22 22 22 22 22 22 22 22 22 21 21 21 22 22 22 22 23 24 25 26 26 26 25 24 23 22 21 20 20 20 20 20 19
27 26 25 24 23 23 23 23 23 22 22 22 23 23 23 23 22 22 22 22 22 22 22 22 23 23 24 25 25 25 25 24 23 23 22 21 20 20 19 19 19 18
26 24 24 23 23 24 24 24 23 22 22 23 23 23 22 22 22 23 23 23 23 23 23 23 24 24 25 25 26 26 25 24 23 22 22 21 20 20 19 19 18 17
23 24 24 23 24 24 24 24 24 23 23 23 23 23 23 23 23 23 23 24 24 24 25 25 25 25 26 26 26 27 26 25 24 22 22 21 21 20 19 18 17 17
23 24 24 24 24 25 25 24 24 23 23 24 24 24 24 24 24 23 24 24 25 26 26 26 27 27 26 26 27 27 26 25 24 23 22 22 21 20 19 18 18 17
24 25 25 25 25 25 25 25 24 23 23 24 24 24 24 24 23 24 24 25 25 26 26 27 28 28 27 26 27 27 26 25 25 25 24 23 22 21 20 19 18 18
23 25 25 25 25 25 24 24 23 23 23 23 23 23 23 23 23 24 25 25 25 26 26 27 28 29 28 27 27 27 26 26 26 26 26 25 24 23 22 21 19 18
Wind_Direction
251 253 256 259 262 265 264 263 265 268 269 268 268 267 268 273 275 273 270 267 263 262 259 256 254 251 249 247 242 238 234 231 230 231 230 228 225 221 218 213 210 209
248 250 251 254 256 260 262 262 266 269 268 267 267 269 269 271 274 272 269 266 264 262 260 257 255 253 252 249 246 241 235 231 230 228 227 227 224 220 216 212 208 208
245 246 247 249 251 254 257 260 265 268 268 269 269 270 270 270 271 270 267 266 264 262 260 258 254 252 250 248 245 239 232 228 224 222 220 219 218 213 208 204 201 201
244 244 245 248 249 249 250 254 263 268 271 273 272 271 270 270 268 267 266 264 263 262 259 257 253 249 246 242 237 231 225 221 216 213 211 207 205 203 198 195 193 191
243 243 243 246 248 247 246 248 258 267 271 273 273 273 270 269 266 265 265 263 260 259 256 253 249 244 240 234 229 224 219 215 209 205 202 196 192 190 188 186 183 179
239 239 240 243 247 246 244 245 253 262 267 269 270 270 268 266 265 263 262 260 257 253 250 247 243 237 233 226 221 218 214 210 204 199 196 190 184 182 180 179 177 172
237 237 237 241 243 243 241 243 251 258 263 267 267 267 265 263 262 259 258 255 251 248 244 241 237 232 227 221 216 212 209 205 199 194 191 186 180 178 175 174 172 165
237 234 235 238 239 239 238 240 247 253 257 261 261 262 261 258 257 255 252 249 244 242 239 235 233 228 222 217 213 209 204 199 195 192 189 184 177 173 170 168 167 161
234 231 231 234 235 235 235 236 242 246 249 253 254 255 254 253 252 250 247 244 240 237 235 232 228 224 220 215 210 207 202 197 194 192 190 184 178 172 167 165 163 159
230 228 227 230 231 232 232 232 237 240 244 248 249 249 249 247 246 245 242 239 236 233 231 229 226 221 217 213 209 206 203 199 195 192 189 185 179 172 167 165 162 158
227 225 224 226 227 229 229 229 233 236 239 243 244 243 243 241 240 239 237 235 234 232 230 227 224 220 216 211 208 205 203 200 195 192 188 183 177 171 167 166 164 159
224 223 222 223 225 226 228 229 231 233 234 237 239 239 237 236 236 234 234 232 231 230 228 226 223 219 216 211 207 203 200 198 194 190 185 179 174 169 166 165 164 161
223 222 221 221 224 225 226 228 229 231 232 233 234 234 233 233 232 231 231 230 229 227 226 225 222 218 215 211 207 203 198 194 190 185 179 174 170 166 163 162 162 160
223 222 221 220 222 224 225 226 226 227 228 230 231 230 231 231 231 230 228 226 226 225 224 223 221 218 215 211 206 201 197 192 186 181 175 169 165 163 161 160 160 159
222 220 218 218 220 221 222 222 222 223 224 226 228 228 228 229 228 227 226 223 222 222 222 221 220 218 216 212 207 200 194 189 184 179 174 168 164 162 161 161 160 159
220 218 217 218 218 218 219 219 219 219 220 222 224 224 224 224 224 224 223 222 221 219 219 218 218 218 216 212 207 200 192 186 180 176 173 170 167 164 162 161 161 161
218 218 217 217 216 215 215 215 215 216 218 220 220 220 222 221 222 221 220 221 221 219 218 217 216 216 214 209 204 198 191 184 179 175 173 172 171 168 165 163 164 164
218 217 216 214 213 212 211 211 212 212 214 216 216 218 219 218 218 219 219 219 218 217 217 216 215 214 209 204 198 194 190 185 180 177 175 174 173 172 170 169 167 166
217 216 213 211 209 209 209 208 208 210 211 213 215 216 216 215 215 217 217 217 216 216 215 214 213 209 203 198 195 190 187 185 182 180 178 177 177 177 176 175 173 170
216 214 210 209 208 207 207 206 207 209 210 212 213 212 213 213 213 214 215 215 215 214 213 211 208 203 197 194 192 188 187 186 184 182 181 181 181 181 180 179 177 176
213 210 207 207 206 205 206 205 206 207 209 210 211 212 213 214 214 214 213 213 213 212 209 207 203 196 192 192 190 188 187 186 184 183 182 181 181 182 182 181 179 178
210 207 205 206 204 203 204 204 205 206 208 211 211 211 213 213 212 213 212 211 210 208 206 203 197 192 190 190 190 190 188 186 184 183 182 180 180 181 182 182 180 179
210 207 206 205 203 203 204 204 206 207 209 211 210 210 210 211 211 212 212 211 209 206 204 199 193 190 189 189 190 191 189 186 184 183 181 180 180 180 182 181 181 182
212 210 210 207 205 205 206 206 208 209 211 212 212 212 211 211 211 211 210 210 209 206 203 197 191 189 188 189 191 193 191 188 185 182 180 180 179 179 181 182 180 181
216 214 213 210 209 210 209 209 209 210 212 213 212 213 212 210 210 208 207 208 207 206 203 197 192 189 187 189 193 194 193 191 188 183 180 180 180 179 179 181 183 182
219 217 216 214 214 213 210 210 211 211 212 212 211 211 210 207 207 206 205 205 204 202 200 197 193 189 187 190 195 197 195 194 191 187 184 183 182 182 181 181 185 187
Height
770 770 770 770 770 771 772 773 774 775 775 775 775 775 776 776 777 778 778 778 778 779 779 779 779 779 780 780 780 780 781 781 782 783 784 785 787 787 789 790 791 793
767 768 768 767 768 768 769 771 772 773 773 774 774 774 774 775 776 777 777 778 778 778 778 778 778 779 779 779 779 779 780 780 781 781 782 783 785 786 787 788 790 791
764 766 766 765 766 766 767 768 769 770 772 772 772 773 773 774 774 775 776 777 777 777 778 778 778 778 778 778 779 779 779 779 779 780 781 782 783 784 784 785 787 788
762 763 763 763 763 764 764 765 767 768 769 770 771 771 772 772 773 774 775 776 776 777 777 777 777 777 777 778 778 778 778 778 779 779 780 781 782 783 783 783 784 785
759 760 761 761 761 761 762 763 764 766 767 768 769 770 770 771 772 772 773 774 775 776 776 776 776 776 776 777 777 778 778 778 778 778 778 779 781 782 783 783 783 784
757 757 758 759 759 759 760 760 762 764 765 767 767 768 769 769 770 771 771 772 773 774 774 775 775 775 775 775 776 777 777 778 778 778 778 779 779 781 782 783 783 784
754 755 755 756 757 757 758 758 760 761 763 764 765 766 767 768 768 769 769 770 771 772 772 773 773 774 774 774 775 776 777 777 778 778 779 779 779 780 781 783 783 784
752 753 753 753 754 755 756 756 757 759 760 762 763 764 765 766 766 767 767 768 769 770 771 771 772 772 773 773 774 775 776 777 778 778 779 779 780 780 781 782 783 784
750 750 750 750 752 753 754 754 755 756 757 759 761 762 763 764 764 765 765 766 767 768 769 770 771 771 772 772 773 774 775 776 777 778 779 780 780 781 781 782 783 784
748 748 747 747 749 750 751 752 753 754 755 756 758 759 761 762 762 763 764 764 765 766 768 768 769 770 771 771 772 773 774 775 777 778 779 780 780 781 782 783 784 785
745 745 744 744 746 748 749 749 750 751 752 754 755 757 758 760 761 761 762 763 764 765 766 767 768 769 769 770 771 772 773 774 776 777 778 780 781 781 782 784 785 786
742 741 741 742 743 745 746 747 748 749 750 751 753 755 756 758 759 760 760 761 762 763 764 765 767 768 768 769 770 771 772 773 775 776 778 779 781 782 783 784 785 787
738 739 738 739 741 742 744 744 745 746 747 749 751 753 754 756 757 758 759 760 761 762 763 764 765 767 768 768 769 770 771 773 774 776 778 780 781 782 784 785 787 788
736 737 736 736 738 739 741 741 742 744 745 747 749 750 752 754 755 756 757 758 760 761 762 763 764 765 767 767 768 769 770 772 773 775 777 779 781 783 785 786 788 789
734 735 734 734 735 736 738 739 740 742 743 745 746 748 750 752 753 755 756 757 758 759 761 762 763 764 765 766 767 768 770 771 773 775 777 778 780 783 785 786 788 790
731 732 731 731 732 734 735 737 738 740 742 743 745 747 748 750 752 753 754 756 757 758 759 761 762 763 764 765 767 768 769 771 772 774 776 778 779 781 784 786 788 790
728 728 728 728 729 732 733 735 737 739 740 742 744 746 747 749 750 751 753 754 755 757 758 759 761 762 764 765 766 768 769 770 772 774 776 778 780 781 783 786 788 790
724 725 725 726 727 730 732 734 736 737 739 741 742 744 746 747 748 750 751 753 754 755 757 758 760 761 763 765 766 767 769 770 772 774 776 778 780 782 783 785 787 790
721 722 723 724 726 728 730 732 733 735 736 738 740 742 744 745 747 748 749 751 752 754 756 757 758 760 762 764 765 767 769 770 772 774 776 778 780 782 783 785 787 789
719 720 722 723 725 727 729 730 731 733 734 736 738 740 742 743 745 746 748 750 751 753 754 756 758 759 761 763 765 767 768 770 772 773 775 777 779 781 783 785 787 788
717 719 721 723 724 726 727 729 730 731 733 735 737 738 740 742 743 744 746 748 750 752 753 755 757 759 761 763 765 766 768 769 771 772 774 777 779 781 783 785 787 788
716 718 720 721 723 724 725 727 728 730 731 734 736 737 739 740 742 743 745 746 748 750 752 754 756 758 760 762 764 766 767 768 770 771 773 776 778 780 783 784 786 787
716 718 719 720 721 723 724 726 727 728 730 732 734 736 737 738 740 741 743 745 747 749 750 752 754 756 758 760 762 764 765 767 768 770 772 775 777 780 782 784 785 787
715 717 717 718 720 721 722 724 726 727 728 730 732 734 735 736 738 740 742 744 745 747 749 751 752 754 756 758 760 762 764 765 766 768 771 773 776 779 781 783 784 786
713 714 715 716 718 719 720 722 724 726 727 729 730 732 733 735 736 738 740 742 744 746 747 749 751 752 755 756 758 760 762 764 765 766 769 772 774 777 780 782 783 785
712 713 714 715 716 717 718 720 722 725 726 727 729 730 732 734 735 737 738 740 742 744 746 748 749 751 753 754 756 758 760 762 763 764 766 769 772 775 777 780 782 783